Вернуться в каталог

STARLINK-6064

АктивенСвязьVLEO
NORAD 56805·PAYLOAD·🇺🇸 United States

Запущен May 31, 2023 с Vandenberg Space Force Base

Loading…

Ближайшие Пролёты (ближайшие 24 часа)

TLE

СвежийSource: CelesTrak SupGP

Эпоха: Sep 15, 2026, 01:30 UTC

1 56805C 23078AQ  26258.06298611 -.00031005  00000+0 -25982-2 0  2586
2 56805  70.0017 206.9279 0003347 268.9761 353.7153 14.98347218    17

Отслеживайте STARLINK-6064 в реальном времени с AllMySat

Download on the App Store